|
NORAD ID: 8419 Int'l Code: 1975-103A
Perigee: 974.9 km
Apogee: 1,006.5 km
Inclination: 83.0 °
Period: 104.8 minutes
Semi major axis: 7361 km
Launch date: November 4, 1975
Source: Commonwealth of Independent States (former USSR) (CIS)
Two Line Element Set (TLE):
1 08419U 75103A 13140.14158205 .00000099 00000-0 89031-4 0 7107
2 08419 082.9755 213.9128 0021444 216.2257 205.4754 13.74470843882675
Source:
NASA's NSSDC Master Catalog entry for COSMOS 778
|